Flag for Germany Weather past 2 weeks in Viernheim, Hesse, Germany

Now
37 °F

Passing clouds.


Feels Like: 35 °F
Forecast: 33 / 48 °F
Wind: 3 mph from West

Location: Baden Wurttemberg - Neuostheim

Current Time: Mar 5, 2015 at 1:16:43 AM

Latest Report: Mar 4, 2015 at 10:20 PM


Visibility: N/A

Pressure: 30.45 "Hg

Humidity: 75%

Dew point: 30 °F

Location of ViernheimLocation

Historic Weather in Viernheim — Graph

°F

Viernheim temperature yesterday

Maximum temperature yesterday: 46 °F (at 3:50 PM)
Minimum temperature yesterday: 37 °F (at 6:20 AM)
Average temperature yesterday: 42 °F

Past Weeks' High & Low Weather Summary

 TemperatureHumidityPressure
High55 °F (Feb 20, 3:20 PM)100% (Feb 22, 7:50 AM)30.74 "Hg (Feb 22, 7:50 AM)
Low30 °F (Feb 19, 5:20 AM)35% (Mar 2, 3:20 PM)29.47 "Hg (Feb 23, 2:20 PM)
Average42 °F72%30.02 "Hg
* Reported Feb 18 5:20 AM — Mar 4 10:20 PM, Viernheim, Weather by CustomWeather, © 2015

Note: Actual official high and low records may vary slightly from our data, if they occured in-between our weather recording intervals... More about our weather records

Advertising

Viernheim weather history for previous 24 hours

 ConditionsComfort  
Time TempWeatherWind HumidityBarometerVisibility
10:20 PM
Wed, Mar 4
37 °FPassing clouds.3 mph75%30.45 "HgN/A
9:50 PM39 °FPassing clouds.3 mph75%30.42 "HgN/A
9:20 PM41 °FPassing clouds.10 mph66%30.42 "HgN/A
8:50 PM41 °FClear.9 mph66%30.39 "Hg10 mi
8:20 PM43 °FClear.9 mph61%30.39 "Hg10 mi
7:50 PM43 °FClear.7 mph61%30.39 "Hg10 mi
7:20 PM43 °FClear.7 mph61%30.39 "Hg10 mi
6:50 PM45 °FScattered showers. Passing clouds.7 mph57%30.36 "HgN/A
6:20 PM45 °FScattered showers. Passing clouds.8 mph53%30.36 "HgN/A
5:50 PM46 °FSunny.6 mph50%30.33 "Hg10 mi
5:20 PM46 °FSunny.8 mph50%30.33 "Hg10 mi
4:50 PM46 °FPartly sunny.10 mph50%30.33 "HgN/A
4:20 PM46 °FPartly sunny.9 mph46%30.33 "HgN/A
3:50 PM46 °FPartly sunny.8 mph46%30.33 "HgN/A
3:20 PM45 °FPartly sunny.8 mph53%30.33 "HgN/A
2:50 PM45 °FPartly sunny.7 mph53%30.33 "HgN/A
2:20 PM45 °FPartly sunny.8 mph53%30.33 "HgN/A
1:50 PM45 °FPartly sunny.10 mph53%30.33 "HgN/A
1:20 PM45 °FScattered clouds.13 mph53%30.33 "HgN/A
12:50 PM45 °FPartly sunny.10 mph53%30.33 "HgN/A
12:20 PM43 °FPartly sunny.9 mph57%30.33 "HgN/A
11:50 AM45 °FPassing clouds.9 mph53%30.33 "HgN/A
11:20 AM43 °FScattered clouds.10 mph57%30.33 "HgN/A
10:50 AM43 °FScattered clouds.9 mph61%30.30 "HgN/A
10:20 AM43 °FPassing clouds.12 mph66%30.30 "HgN/A
9:50 AM41 °FPassing clouds.13 mph70%30.30 "HgN/A
9:20 AM41 °FPassing clouds.9 mph70%30.30 "HgN/A
8:50 AM39 °FSunny.8 mph75%30.30 "Hg10 mi
8:20 AM39 °FSunny.5 mph75%30.30 "Hg10 mi
7:50 AM37 °FPassing clouds.5 mph81%30.27 "HgN/A
7:20 AM37 °FSunny.3 mph81%30.27 "Hg10 mi
6:50 AM37 °FClear.2 mph75%30.27 "Hg10 mi
6:20 AM37 °FPassing clouds.5 mph81%30.24 "HgN/A
5:50 AM39 °FPassing clouds.5 mph75%30.24 "HgN/A
5:20 AM39 °FPassing clouds.5 mph75%30.24 "HgN/A
Weather by CustomWeather, © 2015

See weather overviewHow to use our weather pages